www.pogodaiklimat.ru

Погода и климат >> Архив погоды >> Мексика >> Mazatlan


ПОГОДА в Mazatlan

  • Прогноз погоды в Mazatlan
  • Монитор погоды в Mazatlan
  • Климат города

АРХИВ ПОГОДЫ в Mazatlan

Время (UTC), дата Ветер
(напр.,м/с)
 
Видим.   Явления Облачность Т
(С)
Тd
(С)
f
(%)
Тe
(С)
Тes
(С)
Комфортность P
(гПа)
Po
(гПа)
Тmin
(С)
Tmax
(С)
R
(мм)
R24
(мм)
S
(см)
18 17.09 СЗ 2 20 км 8/0 2000 м
[Ac trans]
+30.3 +24.5 71 +43 +52 опасность
перегрева
1011.8 1011.4 +23.9 +31.1
21 17.09 З 2 20 км 5/3 750 м
[Cu med, cong Ac trans]
+31.5 +24.5 66 +44 +52 опасность
перегрева
1009.5 1009.0
00 18.09 З 3 20 км 5/3 600 м
[Cu med, cong Ci fib]
+31.1 +24.2 67 +43 +44 опасность
перегрева
1009.1 1008.6 +23.9 +33.0
03 18.09 Ю 1 10 км 3/0
[Ci fib]
+29.5 +23.2 69 +40 +40 очень
душно
1010.7 1010.3
06 18.09 С 1 10 км 5/1 500 м
[Sc diur, vesp Ac und]
+28.1 +24.0 78 +39 +39 очень
душно
1011.7 1011.3 +33.0
09 18.09 С 1 8000 м дым 8/8 420 м
[Sc diur, vesp]
+27.3 +23.8 81 +37 +37 очень
душно
1011.1 1010.7
15 18.09 С 1 20 км {гроза, морось} 10/10 200 м
[Cu med, cong]
+26.8 +25.2 91 +39 +39 очень
душно
1011.2 1010.8 0.2
18 18.09 СЗ 2 20 км {морось} 8/0 2000 м
[Ac trans]
+30.5 +25.0 73 +44 +53 опасность
перегрева
1011.3 1010.9 0.2
21 18.09 З 3 20 км 9/1 800 м
[Cb calv As op]
+30.3 +24.6 72 +43 +46 опасность
перегрева
1009.4 1009.0
00 19.09 С 1 20 км 10/0 2000 м
[Ac und]
+29.6 +25.1 77 +43 +43 опасность
перегрева
1009.1 1008.7 +26.4 +33.9
03 19.09 С 1 10 км 9/0 2000 м
[Ac und]
+28.5 +23.3 73 +38 +38 очень
душно
1009.7 1009.4
06 19.09 СВ 1 10 км 1/0
[Ci fib]
+27.3 +22.9 77 +36 +36 очень
душно
1010.6 1010.1 +33.9
09 19.09 С 1 10 км 6/0
[Ac und]
+26.9 +23.9 84 +37 +37 очень
душно
1010.1 1009.7
15 19.09 С 1 20 км 4/1 660 м
[Cb calv Cs]
+29.2 +23.9 73 +40 +44 очень
душно
1010.1 1009.7
18 19.09 Ю 1 20 км 5/3 900 м
[Cu med, cong Ci fib]
+32.9 +25.6 66 +48 +61 опасность
перегрева
1010.7 1010.3 +26.0 +34.4
21 19.09 Ю 1 20 км 6/4 800 м
[Cb calv Ci fib]
+32.7 +26.3 69 +49 +58 опасность
перегрева
1009.4 1009.0
00 20.09 З 1 20 км 9/4 600 м
[Cu med, cong As op]
+31.0 +25.3 72 +45 +45 опасность
перегрева
1008.4 1008.0 +26.0 +35.4
03 20.09 СЗ 1 10 км 3/0 2000 м
[As op]
+28.8 +24.6 78 +41 +41 опасность
перегрева
1009.7 1009.3
06 20.09 С 1 10 км 3/3 450 м
[Sc diur, vesp]
+28.5 +24.9 81 +41 +41 опасность
перегрева
1011.2 1010.7 +34.5
09 20.09 СВ 1 10 км ясно +27.5 +24.8 85 +39 +39 очень
душно
1010.4 1010.0
15 20.09 СВ 1 20 км 4/1 500 м
[Sc diur, vesp Ci fib]
+28.4 +24.3 78 +40 +44 очень
душно
1011.6 1011.2
18 20.09 ЮЗ 1 20 км 4/0 800 м
[As op]
+32.0 +24.9 66 +45 +59 опасность
перегрева
1012.3 1011.8 +25.9 +32.6
21 20.09 З 1 20 км 6/1 840 м
[Cu med, cong As op]
+32.7 +24.7 63 +46 +54 опасность
перегрева
1011.2 1010.7
00 21.09 СЗ 2 20 км 8/1 600 м
[Cu hum Cs]
+31.4 +24.7 68 +45 +46 опасность
перегрева
1010.3 1009.8 +25.9 +34.2
03 21.09 С 1 10 км 3/0
[Ci fib]
+29.3 +24.3 75 +41 +41 опасность
перегрева
1010.2 1009.8
15 21.09 С 1 20 км 1/0
[Ci fib]
+28.8 +23.3 72 +39 +44 очень
душно
1010.4 1010.0
18 21.09 З 2 20 км ясно +31.8 +22.9 59 +42 +59 опасность
перегрева
1010.9 1010.5 +25.8 +32.8
21 21.09 З 2 20 км ясно +32.4 +23.1 58 +43 +57 опасность
перегрева
1009.4 1009.0
00 22.09 СЗ 2 20 км 1/1 1000 м
[Cu med, cong]
+31.2 +23.1 62 +41 +43 опасность
перегрева
1008.5 1008.0 +25.8 +34.3
03 22.09 СЗ 1 10 км ясно +29.9 +23.5 69 +41 +41 опасность
перегрева
1009.6 1009.1
06 22.09 С 1 10 км ясно +28.4 +24.2 78 +40 +40 очень
душно
1010.0 1009.6 +34.3
09 22.09 С 1 10 км ясно +27.9 +24.4 81 +39 +39 очень
душно
1009.3 1008.9
12 22.09 С 1 10 км ясно +27.2 +24.5 85 +38 +38 очень
душно
1009.1 1008.6 +26.7 +34.3
15 22.09 С 1 20 км 1/1 540 м
[Cu med, cong]
+29.2 +24.8 77 +42 +46 опасность
перегрева
1009.9 1009.4
18 22.09 З 2 20 км 1/1 800 м
[Cu med, cong]
+32.9 +25.5 65 +47 +63 опасность
перегрева
1010.3 1009.8 +26.6 +33.5
21 22.09 ЮЗ 2 20 км 1/1 800 м
[Cb calv]
+33.0 +26.4 68 +49 +62 опасность
перегрева
1008.6 1008.1
00 23.09 С 1 10 км 9/0 2000 м
[As op]
+31.6 +26.3 74 +48 +48 опасность
перегрева
1008.2 1007.8 +26.6 +33.6
03 23.09 В 1 10 км 5/0 2000 м
[As op]
+30.2 +25.1 74 +44 +44 опасность
перегрева
1009.7 1009.2
06 23.09 ЮВ 3 10 км зарница {гроза} 10/10 300 м
[Cb cap]
+26.8 +23.5 82 +36 +36 очень
душно
1011.2 1010.8 0.0
09 23.09 СВ 1 10 км в посл. час морось 10/5 420 м
[Sc As op]
+26.7 +23.4 82 +36 +36 очень
душно
1010.1 1009.7 0.0
12 23.09 СВ 1 10 км 6/6 300 м
[Sc diur, vesp]
+27.5 +23.1 77 +37 +37 очень
душно
1009.6 1009.2 +26.4 +33.6 0.0
15 23.09 С 1 20 км 4/0 2000 м
[Ac trans Ci]
+29.2 +23.6 72 +40 +44 очень
душно
1009.9 1009.4
18 23.09 СЗ 4 20 км ясно +32.3 +25.7 68 +47 +58 опасность
перегрева
1009.6 1009.1 +26.4 +33.0
21 23.09 З 4 20 км 1/1 840 м
[Cb calv]
+32.7 +26.1 68 +48 +57 опасность
перегрева
1007.4 1006.9
00 24.09 СЗ 1 20 км 8/1 600 м
[Cu hum As trans Ci fib]
+31.4 +26.1 74 +47 +48 опасность
перегрева
1006.7 1006.2 +26.4 +33.4
03 24.09 С 1 10 км слабая морось 10/0 2000 м
[As op]
+27.9 +24.8 83 +40 +40 очень
душно
1008.2 1007.7 0.0
06 24.09 СВ 1 10 км слабая морось 10/4 300 м
[Sc As op]
+26.5 +23.6 84 +36 +36 очень
душно
1010.0 1009.6 0.1
09 24.09 С 1 10 км зарница {гроза, морось} 8/1 450 м
[Cb cap Ac As]
+26.7 +23.0 80 +36 +36 очень
душно
1009.2 1008.8 0.0
12 24.09 СВ 1 10 км зарница {гроза} 4/1 300 м
[Cb cap Ac As]
+26.5 +23.6 84 +36 +36 очень
душно
1009.1 1008.7 0.0

 

Местоположение метеостанции Mazatlan (Мексика): широта 23.20 долгота -106.40 высота над уровнем моря 4 м.

В архиве по умолчанию представлена погода в Mazatlan за последнюю неделю. Архивные данные за месяц целиком и за предыдущие месяцы, начиная с января 2011 года, Вы можете получить, выбрав интересующий диапазон дат из раскрывающегося списка и нажав кнопку "Ввод!".


*Определитесь, кто Вы:
робот инопланетянин человек

Внимание! Время в таблицах - всемирное. Для получения местного времени необходимо прибавить поправку, которая в Mazatlan равна -7 ч.

Смотрите также архив погоды в соседних городах и на ближайших метеорологических станциях:

Погода в Culiacan (Мексика) (205 км)
Погода в Durango (Мексика) (206 км)
Погода в Tepehuanes (Мексика) (248 км)
Погода в Tepic (Мексика) (249 км)
Погода в Sombrerete (Мексика) (290 км)
Погода в Huejucar (Мексика) (324 км)
Погода в Colotlan (Мексика) (344 км)
Погода в Torreon (Мексика) (399 км)
Погода в Zacatecas (Мексика) (402 км)
Погода в La Paz (Мексика) (412 км)

Пояснения к столбцам:

Ветер - указаны скорость ветра в м/с - средняя за 10 мин, порывы в срок и между сроками (в фигурных скобках) и направление, откуда дует ветер: С - северный, СВ - северо-восточный, В - восточный, ЮВ - юго-восточный, Ю - южный, ЮЗ - юго-западный, З - западный, СЗ - северо-западный.
Видимость - горизонтальная дальность видимости в метрах или километрах. При видимости от 1 до 10 км при отсутствии осадков обычно наблюдается дымка, при ухудшении видимости до 1 км и менее - туман. В сухую погоду видимость может ухудшаться дымом, пылью или мглою.
Явления - указаны атмосферные явления, наблюдавшиеся в срок или в последний час перед сроком; фигурными скобками обозначены явления, наблюдавшиеся между сроками (за 1-3 часа до срока); квадратными скобками обозначены град или гололедные отложения с указанием их диаметра в мм.
Облачность - указаны через наклонную черту общая и нижняя облачность в баллах и высота нижней границы облаков в метрах; квадратными скобками обозначены формы облаков: Ci - перистые, Cs - перисто-слоистые, Cc - перисто-кучевые, Ac - высококучевые, As - высокослоистые, Sc - слоисто-кучевые, Ns - слоисто-дождевые, Cu - кучевые, Cb - кучево-дождевые. Подробнее классификацию облаков см. в Атласе облаков (PDF).
T - Температура воздуха - температура, измеренная на высоте 2 м над землей.
Td - Температура точки росы - температура, при понижении до которой содержащийся в воздухе водяной пар достигнет насыщения.
f - Относительная влажность воздуха - влажноcть воздуха, измеренная на высоте 2 м над землей.
Te - Эффективная температура - температура, которую ощущает одетый по сезону человек в тени. Характеристика душности погоды. При расчете учитывается влияние влажности воздуха и скорости ветра на теплоощущения человека.
Tes - Эффективная температура на солнце - температура, которую ощущает человек, с поправкой на солнечный нагрев. Характеристика знойности погоды. Зависит от высоты солнца над горизонтом, облачности и скорости ветра. Ночью, в пасмурную погоду, а также при ветре 12 м/с и более поправка равна нулю.
P - Атмосферное давление - приведенное к уровню моря атмосферное давление.
Po - Атмосферное давление - измеренное на уровне метеостанции атмосферное давление.
Tmin - Минимальная температура - минимум температуры воздуха на высоте 2 м над землей.
Tmax - Максимальная температура - максимум температуры воздуха на высоте 2 м над землей.
R - Количество осадков - Количество выпавших осадков за период времени, мм. При наведении курсора мыши на число - период времени, за который выпало указанное количество осадков.
R24 - Количество осадков - Количество выпавших осадков за 24 часа, мм.
S - Снежный покров - Высота снежного покрова, см. При наведении курсора мыши на число - состояние снежного покрова и степень покрытия местности в баллах.